Flag for U.S.A. Weather past 2 weeks in Dallas, Texas, U.S.A.

Now
82 °F

Passing clouds.


Feels Like: 86 °F
Forecast: 77 / 85 °F
Wind: 17 mph from South

Location: Dallas Love Field

Current Time: Jul 8, 2015 at 2:21:42 AM

Latest Report: Jul 8, 2015 at 1:53 AM


Visibility: 10 mi

Pressure: 29.90 "Hg

Humidity: 70%

Dew point: 71 °F

Location of DallasLocation

Historic Weather in Dallas — Graph

°F

Dallas temperature yesterday

Maximum temperature yesterday: 90 °F (at 2:53 PM)
Minimum temperature yesterday: 80 °F (at 5:53 AM)
Average temperature yesterday: 85 °F

Past Weeks' High & Low Weather Summary

 TemperatureHumidityPressure
High96 °F (Jun 29, 5:53 PM)90% (Jun 27, 1:53 AM)30.16 "Hg (Jun 27, 1:53 AM)
Low71 °F (Jun 28, 4:53 AM)26% (Jun 28, 6:53 PM)29.84 "Hg (Jul 6, 7:53 PM)
Average85 °F60%29.97 "Hg
* Reported Jun 23 12:53 AM — Jul 8 12:53 AM, Dallas, Weather by CustomWeather, © 2015

Note: Actual official high and low records may vary slightly from our data, if they occured in-between our weather recording intervals... More about our weather records

Advertising

Dallas weather history for previous 24 hours

 ConditionsComfort  
Time TempWeatherWind HumidityBarometerVisibility
12:53 AM
Wed, Jul 8
83 °FPartly cloudy.17 mph68%29.91 "Hg10 mi
11:53 PM
Tue, Jul 7
84 °FMostly cloudy.17 mph67%29.93 "Hg10 mi
10:53 PM85 °FOvercast.18 mph65%29.93 "Hg10 mi
9:53 PM85 °FOvercast.14 mph68%29.91 "Hg10 mi
8:53 PM86 °FMostly cloudy.16 mph63%29.88 "Hg10 mi
7:53 PM87 °FMostly cloudy.13 mph57%29.88 "Hg10 mi
6:53 PM90 °FMostly cloudy.10 mph52%29.88 "Hg10 mi
5:53 PM90 °FMostly cloudy.15 mph52%29.88 "Hg10 mi
4:53 PM90 °FMostly cloudy.14 mph48%29.89 "Hg10 mi
3:53 PM88 °FCloudy.8 mph57%29.90 "Hg10 mi
2:53 PM90 °FMostly cloudy.15 mph50%29.91 "Hg10 mi
1:53 PM89 °FCloudy.14 mph52%29.93 "Hg10 mi
12:53 PM89 °FCloudy.14 mph52%29.94 "Hg9 mi
11:53 AM88 °FCloudy.15 mph55%29.95 "Hg9 mi
10:53 AM86 °FMostly cloudy.13 mph61%29.95 "Hg9 mi
9:53 AM84 °FCloudy.15 mph67%29.96 "Hg8 mi
8:53 AM83 °FMostly cloudy.10 mph70%29.96 "Hg7 mi
7:53 AM82 °FBroken clouds.15 mph74%29.94 "Hg10 mi
6:53 AM80 °FPartly cloudy.15 mph76%29.94 "Hg10 mi
5:53 AM80 °FMostly cloudy.12 mph76%29.94 "Hg10 mi
4:53 AM81 °FMostly cloudy.14 mph74%29.92 "Hg10 mi
3:53 AM81 °FMostly cloudy.10 mph74%29.91 "Hg10 mi
2:53 AM81 °FMostly cloudy.23 mph74%29.92 "Hg10 mi
Weather by CustomWeather, © 2015

See weather overviewHow to use our weather pages